User: anonymous   Login
Location: Unspecified
(0.0000°N, 0.0000°E)
Time: 02:06:33
(UTC+00:00)
Language:

ASTRA 1KR - Orbit

View from above orbital plane
View from above orbital plane
View from above satellite
View from above satellite

Ground track
Ground track

The orbit data is extracted from the following two-line orbital elements,

1 29055U 06012A   15147.92664141  .00000117  00000-0  00000+0 0  9999
2 29055 000.0288 301.4288 0002043 142.9375 153.5487 01.00271952 33272
Epoch (UTC): 27 May 2015 22:14:21
Eccentricity: 0.0002043
inclination: 0.0288°
perigee height: 35777 km
apogee height: 35795 km
right ascension of ascending node: 301.4288°
argument of perigee: 142.9375°
revolutions per day: 1.00271952
mean anomaly at epoch: 153.5487°
orbit number at epoch: 3327

The dashed part of the orbit path shows where the satellite is in the earth's shadow,  

DLR